This demonstration page uses our WeatherBlox Daily Observations layout. Learn more.

Left ArrowRight Arrow

39.29038, -76.61219

Hourly Observations for July 30, 2020

Temp ( °F °C ) Dew Point ( °F °C ) Humidity (%) Winds ( mph kmh ) Pressure ( in mb ) Visibility ( mi km ) Precip ( " mm )
12:54 am 00:54 Clear 79 26.1 67 19.4 67 67 SW 3 6 29.90 1013 10 16 0.00 0.00
1:54 am 01:54 Mostly Clear 78 25.6 69 20.6 74 74 SW 5 7 29.89 1012 10 16 0.00 0.00
2:54 am 02:54 Mostly Clear 78 25.6 70 21.1 76 76 SW 3 6 29.88 1012 10 16 0.00 0.00
3:54 am 03:54 Partly Cloudy 75 23.9 69 20.6 82 82 Calm 29.87 1012 10 16 0.00 0.00
4:54 am 04:54 Partly Cloudy 75 23.9 70 21.1 84 84 Calm 29.87 1011 10 16 0.00 0.00
5:54 am 05:54 Mostly Cloudy 74 23.3 70 21.1 88 88 Calm 29.88 1012 10 16 0.00 0.00
6:54 am 06:54 Mostly Cloudy 76 24.4 71 21.7 85 85 WNW 6 9 29.88 1012 10 16 0.00 0.00
7:54 am 07:54 Mostly Cloudy 79 26.1 71 21.7 77 77 W 6 9 29.89 1012 10 16 0.00 0.00
8:54 am 08:54 Mostly Cloudy 85 29.4 69 20.6 59 59 WNW 6 9 29.89 1012 10 16 0.00 0.00
9:54 am 09:54 Mostly Cloudy 90 32.2 66 18.9 45 45 Calm 29.88 1012 10 16 0.00 0.00
10:54 am 10:54 Mostly Cloudy 93 33.9 62 16.7 36 36 VRB 3 6 29.88 1012 10 16 0.00 0.00
11:54 am 11:54 Mostly Cloudy 94 34.4 63 17.2 36 36 undefined N/A 29.87 1012 10 16 0.00 0.00
12:54 pm 12:54 Mostly Cloudy 96 35.6 64 17.8 35 35 SW 8 13 29.86 1011 10 16 0.00 0.00
1:54 pm 13:54 Mostly Cloudy 97 36.1 65 18.3 35 35 WSW 10 17 29.84 1010 10 16 0.00 0.00
2:54 pm 14:54 Mostly Cloudy 96 35.6 66 18.9 37 37 VRB 7 11 29.82 1010 10 16 0.00 0.00
3:54 pm 15:54 Mostly Cloudy 96 35.6 67 19.4 39 39 WSW 10 17 29.80 1009 10 16 0.00 0.00
4:54 pm 16:54 Mostly Cloudy 94 34.4 69 20.6 44 44 SSW 7 11 29.79 1009 10 16 0.00 0.00
5:54 pm 17:54 Cloudy 93 33.9 68 20 44 44 SSW 7 11 29.78 1009 10 16 0.00 0.00
6:54 pm 18:54 Cloudy 89 31.7 75 23.9 63 63 SSE 8 13 29.78 1009 10 16 0.00 0.00
7:54 pm 19:54 Cloudy 88 31.1 76 24.4 68 68 SSE 7 11 29.80 1009 10 16 0.00 0.00
8:36 pm 20:36 Cloudy with Thunderstorms 86 30 73 22.8 65 65 SW 15 24 29.81 1009 8 13 0.00 0.00
8:54 pm 20:54 Cloudy with Thunderstorms 76 24.4 70 21.1 82 82 SW 13 20 29.86 1011 3 5 0.01 0.25
9:25 pm 21:25 Cloudy with Light Rain 74 23.3 71 21.7 91 91 WNW 7 11 29.87 1012 7 11 0.05 1.27
9:54 pm 21:54 Cloudy with Light Rain 75 23.9 72 22.2 90 90 SW 5 7 29.87 1011 8 13 0.05 1.27
10:54 pm 22:54 Cloudy with Light Rain 76 24.4 73 22.8 91 91 Calm 29.84 1011 8 13 0.00 0.00
11:54 pm 23:54 Cloudy with Light Rain 76 24.4 73 22.8 91 91 Calm 29.84 1011 9 14 0.00 0.00

Powered by AerisWeather